Voltar ao catálogo

STARLINK-4339

AtivoComunicaçõesSSO
NORAD 53054·PAYLOAD·🇺🇸 United States

Lançado Jul 11, 2022 de Vandenberg Space Force Base

Loading…

Próximas Passagens (próximas 24 horas)

TLE

AtualizadoSource: CelesTrak SupGP

Época: Sep 14, 2026, 20:46 UTC

1 53054C 22077M   26257.86576389  .00083587  00000+0  25903-2 0  2577
2 53054  97.2856  73.6430 0001230  99.1742 238.0522 15.33452135    12

Acompanhe STARLINK-4339 em tempo real com AllMySat

Download on the App Store